SL-8 DEB

Satellite information

Favourite Embed

Satellite Type and Status

DEBRISIN ORBIT

Key statistics

Satellite SL-8 DEB at a glance.

Uptime

13403

Days in orbit

Revolutions

≈ 13.8

Per day

Orbit

LEO

Low Earth Orbit

Inclination

83.0

Latest

Satellite identification and parameters

Extended collection of information and parameters for SL-8 DEB.

Object identification

Identified? True

Debris? True

Object name: SL-8 DEB

International designator: 1989-050C

Object number (NORAD): 43336

Object ID (CCSDS): 43336

Country: COMMONWEALTH OF INDEPENDENT STATES (CIS)

Current information (Y/N): Y

RCS size: SMALL

Orbital parameters

Period: 104.35 minutes

Inclination: 82.9551 deg

SMA: 7342.137 km

Apoapsis: 996.735 km

Periapsis: 931.269 km

RAAN: 27.1859 deg

Eccentricy: 0.00445823

Argument of periapsis: 128.7471 deg

Mean anomaly: 231.7686 deg

Mean motion: 13.79968075 rev/day

Mean motion (dot): 0.00000681 rev/day2

B* drag term: 0.00063649035 1/REarth

Two-line elements (TLE)

Creation date: Dec. 11, 2025, 7:14 p.m.

Reference frame: TEME

Reference center: EARTH

Epoch: Dec. 11, 2025, 8:46 a.m. UTC

TLE line 0: 0 SL-8 DEB

TLE line 1: 1 43336U 89050C 25345.36589930 .00000681 00000-0 63649-3 0 9999

TLE line 2: 2 43336 82.9551 27.1859 0044582 128.7471 231.7686 13.79968075523712

Live tracking on map

Real-time ground track for satellite SL-8 DEB.

In-orbit conjunctions

A list of the most updated potential collisions computed for object SL-8 DEB.

Target Orbit TCA Probability of collision Miss distance Type
SL-8 R/B LEO 2024-11-15 23:28:25 0.0001366403 219.0 (m) ROCKET BODY
THORAD AGENA D DEB SSO 2024-11-15 08:30:56 0.0004058871 416.0 (m) DEBRIS

Associated space launch

Navigation satellite providing location information for the Tsiklon-B navigation system

SL-8 DEB was lifted into orbit during the mission ‘Kosmos-3M | Parus 65’, on board a Kosmos-3M space rocket.

The launch took place on April 4, 1989, 6:36 p.m. from 132/2.

For more information about the launch, click the button.

Launch to space Kosmos-3M | Parus 65
Kosmos-3M | Parus 65

Agency: N/A

Status: Launch Successful

Launch date: April 4, 1989, 6:36 p.m. UTC

Rocket: Kosmos-3M

Launch pad: 132/2

Location: Plesetsk Cosmodrome, Russian Federation

...

Latest news about this satellite

There are no fresh news available about this satellite. Check back as we update our databases every day.


Newsletter sign-up

Weekly statistics, charts and insights to help you stay on top of the space industry.